GFSNW_sfc_temp_273.txt.gz
Temp
57 57 57 56 55 54 50 47 58 70 69 59 48 52 56 63 68 69 66 64 63 60 63 59 59 63 66 74 68 63 64 55 53 64 68 70 65 63 56 51 48 44 47 53
57 57 56 56 55 54 48 46 48 63 68 50 47 53 60 63 65 65 63 62 65 64 59 55 59 64 72 73 68 60 60 53 48 54 58 61 61 61 53 51 48 46 48 57
57 57 57 56 55 54 47 49 52 55 55 50 49 49 53 59 68 65 65 62 63 59 56 56 57 61 69 70 69 68 65 52 53 50 56 60 58 64 61 58 48 50 51 59
57 57 57 56 55 55 50 48 45 47 45 49 48 48 52 56 57 63 62 59 59 55 49 53 52 57 60 67 65 63 60 52 50 56 59 61 64 66 62 57 56 54 59 57
57 57 57 56 55 54 49 45 44 45 42 45 46 47 49 55 56 55 56 55 61 56 50 53 51 54 51 53 61 58 55 52 48 52 60 60 61 65 64 63 61 58 58 58
57 57 57 56 54 52 46 46 47 46 43 42 44 45 50 54 56 57 63 59 57 54 56 61 61 59 59 57 53 54 52 50 48 45 54 57 53 59 63 63 63 63 58 62
57 58 57 57 55 53 50 47 45 43 41 42 45 50 52 54 52 51 59 58 53 61 63 60 56 54 54 57 58 58 53 49 47 45 49 42 56 63 66 55 58 58 61 62
56 57 58 58 56 53 49 48 46 42 38 42 46 47 46 49 50 51 56 58 59 59 53 50 46 45 48 54 57 53 54 48 45 46 44 51 60 60 60 57 52 59 58 59
56 57 58 58 56 53 49 49 49 45 40 40 49 45 45 41 40 45 52 58 56 54 48 47 40 39 44 45 51 46 50 54 51 44 44 41 53 63 67 64 48 59 59 57
56 57 57 58 58 55 52 49 50 46 41 43 44 42 42 45 42 41 44 50 51 52 44 41 40 41 48 42 42 41 44 43 43 42 44 51 55 60 66 52 48 58 59 57
56 56 57 58 58 57 51 49 51 47 42 44 49 51 45 44 43 40 45 46 47 45 41 40 40 40 44 42 44 42 43 40 39 40 38 40 58 59 54 55 57 59 59 57
56 57 57 57 57 57 54 46 51 56 49 45 49 53 55 53 53 45 44 43 45 45 42 42 41 41 42 39 38 47 41 44 41 43 43 52 54 55 59 58 59 59 59 59
56 57 57 57 56 56 55 48 48 47 47 47 42 46 52 51 53 56 43 45 49 50 53 44 41 40 42 38 40 42 47 48 43 45 48 51 54 56 59 59 58 62 62 62
56 56 56 56 56 55 55 52 52 51 47 43 42 53 51 55 52 54 56 52 51 50 47 46 44 43 46 41 44 42 47 47 45 43 48 52 55 55 58 60 61 61 62 61
56 56 56 55 55 54 51 49 53 54 46 42 42 49 51 51 51 53 54 51 52 53 49 45 41 43 45 42 41 40 49 46 41 42 49 48 51 56 59 58 58 60 59 58
55 55 55 54 54 54 48 49 52 53 53 46 41 45 47 52 55 55 51 51 52 54 50 49 50 54 50 44 40 50 54 53 52 48 52 50 55 58 58 58 59 60 59 58
54 54 54 53 53 47 46 45 52 54 54 45 41 40 47 53 52 50 49 49 47 47 48 43 43 45 49 45 42 51 54 55 57 56 55 50 54 55 59 58 60 60 60 59
54 54 53 53 53 52 46 49 54 55 50 48 41 39 42 51 45 43 46 45 44 44 43 45 42 43 45 42 49 46 50 52 52 53 54 56 59 57 57 57 57 57 56 56
53 53 53 51 47 45 51 58 58 56 51 44 44 37 36 48 43 43 44 44 40 44 45 46 47 44 42 45 44 46 48 48 49 52 54 55 54 56 56 56 57 57 56 55
53 50 47 49 52 59 57 50 48 48 49 47 42 43 38 43 42 41 43 44 38 39 45 49 43 41 49 51 50 51 52 51 51 48 49 51 52 53 55 56 57 56 55 55
47 49 49 53 58 49 50 46 44 43 43 43 44 40 39 45 40 41 44 40 43 37 41 41 41 41 47 51 49 52 52 53 54 53 53 53 53 53 54 54 56 57 55 54
47 47 47 47 47 47 45 44 45 43 40 43 41 42 42 43 44 44 44 41 42 38 45 41 38 43 48 46 52 53 54 53 53 54 54 55 55 54 53 53 54 56 56 54
47 47 48 47 47 39 42 38 39 38 43 45 44 42 44 44 43 43 42 39 38 45 40 40 42 46 47 50 50 52 55 56 56 55 56 56 54 54 54 54 54 55 54 55
43 45 37 42 42 41 41 41 44 49 46 47 44 43 42 41 42 41 40 42 42 37 33 36 41 44 48 50 52 52 53 52 53 53 54 54 54 54 54 54 54 54 54 56
43 46 38 40 45 45 47 48 46 48 47 46 46 42 41 38 38 39 40 40 34 35 35 40 44 45 47 49 51 51 53 53 53 53 53 53 54 54 52 53 54 54 55 57
44 44 42 44 43 44 45 45 46 47 46 45 47 42 40 38 38 36 38 35 33 38 41 44 44 45 46 49 50 52 53 53 52 53 53 53 53 52 53 54 54 55 55 55
50 44 46 45 45 45 46 46 47 46 46 44 43 43 44 39 36 36 38 38 41 42 43 43 43 44 45 49 50 51 52 53 53 53 53 53 54 55 54 53 54 54 54 56

GFSNW_sfc_temp_276.txt.gz
Temp
57 57 56 56 55 53 49 51 57 67 66 58 45 50 53 59 64 65 64 62 60 56 58 55 55 59 61 68 65 60 57 52 50 58 62 65 61 60 55 51 47 42 44 51
57 57 56 56 55 53 46 49 49 62 65 50 46 51 57 60 62 62 62 61 61 60 55 51 57 61 66 68 64 56 59 51 46 54 56 60 57 58 53 49 47 44 47 55
57 57 56 56 55 54 47 50 53 54 53 46 48 46 50 56 64 60 60 58 60 58 56 55 53 57 65 66 65 67 63 49 52 48 53 55 56 59 56 54 47 49 49 59
56 57 57 56 55 54 50 46 42 45 44 48 45 45 49 51 53 58 59 55 55 51 45 49 50 56 59 64 64 60 57 51 47 53 58 56 58 60 60 55 56 57 64 54
56 57 57 56 54 53 47 43 43 42 40 42 44 44 44 50 52 51 52 52 58 53 47 49 49 51 49 53 59 55 53 50 46 49 59 57 57 61 61 59 58 57 58 57
56 57 57 56 53 52 45 45 45 44 41 40 41 42 45 51 51 53 58 56 53 51 52 55 56 56 56 54 52 53 51 48 46 43 51 54 51 56 59 59 53 51 53 55
57 57 57 56 54 52 47 46 44 42 40 41 42 46 49 49 49 47 55 55 50 56 57 56 49 48 51 53 55 54 49 47 45 43 46 40 53 60 60 55 56 56 56 57
57 57 57 57 55 52 49 47 45 41 37 40 43 45 44 46 47 47 51 55 55 53 51 47 44 44 47 51 53 50 49 46 43 42 41 48 56 58 57 54 53 58 55 57
56 57 57 57 56 53 49 47 47 44 39 40 47 43 43 40 39 43 49 53 53 52 46 45 38 39 42 43 46 46 47 46 47 40 38 39 52 60 64 63 49 59 58 57
56 57 57 58 57 54 51 48 48 44 41 41 43 41 41 43 40 39 42 47 48 49 41 40 38 38 45 41 42 42 42 41 40 40 39 47 55 59 61 47 50 58 60 58
56 57 57 58 57 56 51 47 49 46 40 43 47 49 44 43 41 39 43 44 44 43 39 38 38 38 41 40 42 41 42 39 38 38 36 38 57 57 51 53 56 59 61 61
56 56 57 57 57 56 54 45 49 53 48 44 48 51 53 53 51 44 42 41 42 43 40 41 40 39 40 38 37 45 40 43 40 42 42 51 53 53 57 57 55 57 58 60
56 56 57 57 56 55 54 51 48 46 46 44 42 45 49 49 50 53 42 43 47 46 49 42 40 39 41 37 38 41 45 48 43 45 47 50 54 56 57 60 61 60 60 60
56 57 57 56 55 55 54 49 50 49 46 42 42 52 49 52 49 51 52 48 48 47 46 43 42 42 46 39 43 41 47 46 44 42 47 53 56 55 56 58 60 59 60 60
56 56 56 56 55 54 50 47 52 51 45 41 40 47 47 49 49 50 50 48 44 44 44 44 43 45 46 46 43 38 47 49 42 43 48 47 49 57 57 57 58 59 58 58
55 55 55 55 54 53 46 44 49 50 50 46 41 44 45 48 51 49 47 46 44 45 43 43 44 48 49 43 40 45 50 50 51 49 52 49 53 55 58 57 59 60 58 58
54 54 54 53 53 49 44 44 51 53 55 46 40 38 46 49 49 47 47 47 45 44 43 42 43 44 48 45 42 47 51 51 52 53 51 49 52 51 57 56 58 59 59 58
54 54 53 53 53 52 47 48 53 53 50 48 41 38 41 48 44 43 44 43 43 43 43 47 45 47 46 41 43 46 49 50 50 51 54 54 54 55 55 56 56 55 55 56
53 53 53 52 49 46 50 58 57 55 50 44 44 40 34 46 42 41 42 42 39 43 41 43 46 45 41 46 48 49 51 50 49 51 51 52 53 54 54 55 54 53 55 55
53 51 46 48 51 58 56 49 49 48 49 47 42 46 38 41 40 40 40 43 39 35 41 46 43 43 49 51 52 52 52 53 53 48 48 49 50 52 52 53 55 54 55 55
47 49 48 53 57 49 48 46 44 44 42 45 45 42 38 43 39 39 44 39 42 37 41 40 40 41 47 52 47 49 52 53 52 51 52 52 52 51 52 53 54 55 55 55
48 47 47 46 47 47 45 44 45 43 41 41 39 40 41 41 43 44 44 41 42 36 44 39 38 43 49 46 52 52 52 54 54 56 53 55 54 54 53 54 53 54 55 56
49 46 46 47 45 39 41 35 37 38 41 42 42 41 42 45 44 44 42 39 38 44 40 40 42 45 46 47 51 52 53 55 55 54 55 55 55 55 55 54 54 55 54 55
42 43 36 42 40 40 40 40 41 45 44 43 43 45 41 41 42 41 41 41 42 37 34 35 42 44 45 47 51 51 51 53 53 53 54 53 53 54 55 55 55 54 54 55
41 42 38 39 43 43 45 45 44 46 45 45 43 41 41 38 38 39 39 39 34 35 35 37 42 45 45 46 49 50 51 52 53 53 53 53 53 53 54 55 54 54 54 54
43 42 41 42 41 42 43 44 44 46 43 42 44 43 40 39 37 36 36 35 31 37 39 41 44 45 45 46 49 51 51 52 52 52 53 53 53 52 54 56 54 54 55 56
45 43 44 42 42 42 44 44 44 45 44 42 44 43 44 39 35 35 36 35 39 41 42 43 43 45 45 46 49 50 51 51 53 53 53 53 52 53 54 53 54 56 57 56

GFSNW_sfc_temp_279.txt.gz
Temp
56 57 56 56 55 53 56 70 70 77 77 72 62 66 65 61 72 74 73 73 71 69 69 69 69 69 70 74 77 73 75 74 68 73 77 77 79 78 77 68 64 65 64 70
56 56 56 56 55 53 56 65 67 76 77 66 64 65 67 69 70 68 70 69 70 70 68 66 69 70 74 74 74 72 74 69 66 69 73 73 73 73 75 72 70 67 65 71
57 57 57 56 55 53 59 65 67 69 66 61 64 63 63 65 69 67 68 68 70 69 67 67 65 68 72 73 72 66 72 70 69 66 70 71 68 72 71 73 67 70 69 74
57 57 57 56 54 53 62 58 54 55 60 61 60 61 61 62 61 66 68 66 65 63 63 64 64 67 70 72 69 70 73 66 65 69 70 68 69 71 73 68 72 67 73 75
57 57 57 56 53 53 57 58 58 56 54 53 59 54 55 57 59 60 62 62 64 65 62 62 62 64 66 66 71 70 69 64 63 64 70 68 65 70 71 72 72 71 71 71
57 57 57 56 53 55 55 53 55 57 48 54 58 53 53 55 58 62 64 61 62 62 62 64 67 68 69 68 66 67 66 65 61 59 65 65 61 69 71 72 66 66 67 70
57 57 57 56 54 53 55 51 53 58 53 56 54 52 53 54 55 55 61 63 61 63 67 69 65 65 66 66 68 70 64 61 62 58 61 50 67 72 71 68 66 66 66 67
57 57 57 57 55 53 55 54 55 53 51 53 53 52 52 54 55 54 57 62 63 65 64 62 58 60 61 65 68 67 66 63 59 54 56 62 66 66 66 66 68 68 67 68
56 57 58 58 56 53 56 55 55 55 55 54 53 53 51 53 53 55 57 63 64 64 63 59 50 51 56 56 59 61 63 63 60 54 51 48 61 67 70 68 60 68 67 67
56 57 57 58 57 54 56 56 55 55 51 55 53 54 53 54 52 52 53 55 58 60 57 54 53 53 57 53 54 55 57 57 55 55 53 59 64 66 68 56 59 67 68 68
56 56 57 58 57 56 55 56 56 56 49 52 54 56 54 53 54 52 54 55 56 58 53 52 53 52 56 52 55 56 57 55 54 54 50 48 66 66 59 62 65 67 67 68
56 56 57 57 57 56 55 54 57 57 50 54 56 59 60 59 59 57 55 52 51 55 52 51 52 52 54 50 50 57 51 58 55 55 58 62 64 64 67 67 64 66 67 69
56 57 56 57 56 55 55 54 54 52 50 54 54 57 60 60 60 65 55 56 56 55 57 54 52 48 56 50 52 53 57 55 51 54 61 61 63 66 68 69 67 68 70 69
56 57 57 56 55 54 54 53 55 52 50 45 55 60 58 61 60 60 62 59 59 59 58 53 50 49 58 53 56 54 59 58 55 54 58 62 65 67 66 67 68 68 69 68
56 56 56 55 55 54 54 53 58 55 51 47 51 59 59 60 59 58 59 58 55 56 54 50 50 58 54 57 55 53 60 56 53 51 60 59 59 64 67 64 64 66 66 66
55 55 55 55 55 54 54 52 55 57 56 49 45 57 56 59 59 57 57 57 54 56 55 55 58 60 56 49 48 57 62 64 64 58 63 62 63 64 65 63 65 67 67 67
54 54 54 53 53 53 52 53 54 53 56 48 46 51 59 57 58 59 58 56 56 54 53 52 56 58 53 49 46 58 62 62 61 62 61 58 63 61 65 64 64 65 66 66
53 53 53 53 53 53 52 58 53 54 53 50 45 49 53 58 56 56 56 53 53 52 51 53 53 56 53 47 54 54 56 57 57 57 59 57 61 61 62 64 64 62 62 64
53 53 53 53 51 49 53 58 57 57 51 46 48 44 48 57 56 55 55 54 49 53 47 52 53 52 47 53 52 53 54 53 54 58 58 59 58 60 61 62 62 61 62 64
53 53 51 51 53 58 58 55 50 49 50 49 45 54 47 53 53 52 51 51 49 45 53 56 48 51 58 57 57 55 57 57 59 53 52 55 56 58 59 60 62 62 62 62
51 50 49 52 57 55 53 48 45 47 44 48 50 50 48 54 49 50 52 49 46 41 49 47 46 48 53 58 57 59 59 57 57 56 55 55 54 53 55 57 59 61 62 62
49 49 52 54 50 50 46 45 46 45 44 51 49 50 47 51 53 49 51 47 45 41 52 46 42 48 54 56 58 59 59 56 55 55 55 55 55 56 55 56 57 59 61 62
52 49 49 48 49 39 42 42 44 43 50 51 50 49 51 48 50 48 47 44 45 51 45 42 45 51 54 56 56 56 54 54 54 54 56 55 55 56 56 55 57 60 62 62
49 47 37 45 44 47 50 50 53 57 55 54 54 52 47 47 46 47 43 50 48 41 36 38 50 51 54 54 55 54 52 52 52 52 54 54 54 54 54 56 58 58 59 63
47 47 39 46 53 53 53 54 53 56 57 53 54 52 51 44 46 43 44 43 37 38 38 48 52 53 53 53 53 53 52 51 51 53 53 53 53 52 53 56 57 58 62 63
45 45 44 50 49 51 52 53 54 58 54 56 56 51 46 46 46 42 42 40 36 46 50 55 55 53 53 53 53 51 52 51 52 54 53 53 52 52 54 57 59 60 60 60
45 45 51 50 52 52 54 55 55 54 52 50 52 47 47 47 44 43 46 44 52 56 56 56 53 52 52 52 52 52 51 51 52 53 52 53 53 54 54 54 55 56 57 58

GFSNW_sfc_temp_285.txt.gz
Temp
57 57 57 56 55 54 58 91 88 99 101 84 88 85 90 64 88 91 89 88 88 87 89 86 87 88 89 92 94 87 93 90 81 85 95 97 94 90 91 81 76 83 81 82
57 57 57 56 55 54 73 87 93 100 98 80 84 88 85 86 86 87 86 86 86 88 85 79 87 89 90 90 90 86 92 85 77 81 90 93 87 90 91 91 90 79 76 83
57 57 57 56 56 54 67 86 83 90 91 91 85 84 82 81 85 85 86 86 86 85 83 86 82 84 88 88 90 71 82 87 81 78 83 88 82 86 90 88 80 81 83 84
57 57 57 57 56 55 70 88 85 82 82 84 85 85 82 81 78 83 84 82 83 82 79 82 81 86 87 87 74 83 88 78 82 85 88 88 86 84 86 83 84 79 83 84
57 58 57 57 56 54 83 77 78 88 85 78 80 69 77 78 79 78 79 77 81 82 78 81 78 81 84 82 88 84 90 77 80 77 84 84 81 84 85 84 85 84 85 83
57 58 58 57 55 59 80 80 86 80 66 80 79 80 77 76 77 79 80 79 77 79 77 81 83 86 86 85 80 79 81 79 75 70 80 79 74 81 83 83 86 85 79 86
57 58 58 57 56 55 75 76 76 78 79 80 79 75 75 75 75 74 79 79 76 78 84 86 86 86 85 84 83 86 76 74 74 69 73 61 80 90 88 82 83 86 86 87
57 57 58 58 56 55 71 77 75 77 78 80 74 73 75 75 73 73 74 79 80 83 80 74 71 74 74 77 82 82 84 77 71 65 67 73 79 82 81 79 78 85 83 84
57 57 58 58 57 55 69 77 76 76 74 74 74 75 73 76 76 72 74 79 82 80 77 74 61 63 70 69 73 83 83 80 72 69 61 60 76 81 84 83 69 79 80 79
57 57 58 58 58 55 63 76 75 76 74 76 74 73 73 76 74 75 74 74 74 78 72 68 68 68 76 66 66 68 70 70 67 68 63 70 82 82 83 64 66 76 78 78
57 58 58 58 58 57 61 76 74 70 73 74 73 74 72 76 76 71 72 72 73 74 66 69 70 69 72 68 71 68 68 66 66 67 63 60 80 79 69 70 75 76 77 77
57 57 58 57 57 57 57 74 76 73 71 73 75 76 76 74 74 74 75 70 68 72 69 71 71 67 70 67 61 75 64 70 66 65 66 75 79 74 77 78 76 76 76 77
56 57 58 57 56 56 57 70 74 74 73 74 75 73 76 82 79 82 71 76 72 71 72 70 70 61 69 62 66 68 73 76 68 67 72 75 76 76 75 79 79 79 79 78
56 56 57 57 56 56 55 71 74 72 70 68 70 79 74 79 81 77 78 75 78 76 75 70 68 65 74 66 69 67 72 72 67 66 70 73 75 76 75 75 76 75 78 78
56 56 56 56 56 55 61 73 75 72 65 66 72 77 77 79 76 74 75 75 72 73 69 68 66 72 70 70 70 68 75 69 64 57 65 67 68 73 74 72 73 76 75 74
55 55 55 55 54 55 68 63 75 73 72 66 66 76 72 75 74 73 72 74 73 72 70 70 73 75 69 60 60 71 75 74 75 68 72 71 71 71 70 70 69 68 69 69
54 54 54 54 54 61 64 59 63 58 72 63 66 68 74 75 74 75 75 75 72 72 70 69 70 71 69 64 59 69 72 71 69 71 71 66 67 64 69 70 73 73 71 72
54 54 53 53 53 55 61 69 57 61 65 68 63 66 68 74 70 68 79 71 73 71 68 70 66 70 70 54 65 65 66 68 69 70 68 66 67 66 67 69 68 67 65 66
53 53 54 61 61 60 63 58 59 69 62 54 64 65 57 75 73 74 72 73 64 70 63 66 65 62 52 60 65 60 65 63 63 67 68 68 65 65 68 68 66 62 65 68
53 60 64 55 58 59 59 61 56 59 62 62 59 72 65 72 73 71 67 68 63 60 68 72 63 63 68 68 71 70 68 66 69 66 64 65 62 62 63 61 65 65 66 66
65 58 54 61 58 60 58 53 54 57 55 64 68 69 66 74 64 62 69 61 62 53 62 61 61 57 66 70 69 68 68 67 70 70 65 64 62 60 56 56 58 60 63 64
56 57 62 64 59 57 53 52 57 55 57 66 65 67 72 71 72 66 66 58 57 53 66 57 52 63 66 69 69 70 69 70 69 67 66 63 58 56 55 56 57 61 62 62
64 61 58 57 56 42 49 49 52 52 64 67 67 64 70 68 68 64 61 53 54 66 57 54 62 65 68 67 68 68 69 69 68 65 63 57 55 56 57 56 58 57 57 57
56 52 39 50 50 55 59 59 59 66 68 65 66 61 59 68 61 61 53 59 60 51 48 52 64 61 63 65 66 64 66 66 64 59 59 56 54 53 54 55 57 59 57 58
53 55 44 54 63 66 68 70 70 72 75 71 63 62 59 58 56 59 57 52 47 51 48 61 66 65 64 63 63 65 64 62 58 60 54 53 53 52 53 55 60 60 60 60
57 57 55 63 64 66 69 69 67 69 66 70 66 59 55 51 55 52 52 51 48 57 65 66 68 63 63 63 65 64 62 60 60 60 54 53 52 52 54 56 59 58 60 60
56 58 65 65 66 65 68 67 64 71 69 61 59 52 53 62 51 51 60 53 61 66 68 71 65 63 63 64 64 63 61 61 60 60 56 54 54 56 56 53 54 55 57 59